Location: Gwatt
(46.7204°N, 7.6223°E)
Time: 11:52:55
(UTC+00:00)

Transit 2A - Pass Details

Date: 17 May 2021
Orbit: 601 x 958 km, 66.7° (Epoch: 15 June)

Event Time Altitude Azimuth Distance (km) Brightness Sun altitude
Exits shadow 01:06:52 29° 266° (W) 1,130 6.6 -20.1°
Maximum altitude 01:08:25 39° 311° (NW) 912 6.5 -20.0°
Drops below altitude 10° 01:12:31 10° 21° (NNE) 1,952 9.3 -19.7°
Sets 01:14:53 0° 30° (NNE) 2,865 10.6 -19.5°
